Regional Weather Roundup
Issued by NWS

Home | Current Version | Previous Version | Text Only | Print | Product List | Glossary Off
Versions: 1 2 3 4 5 6 7 8 9 10 11 12 13 14 15 16 17 18 19 20 21 22 23 24 25 26 27 28 29 30 31 32 33 34 35 36 37 38 39 40 41 42 43 44 45 46 47 48 49 50

000
ASUS43 KLOT 210404
RWRIL

ILLINOIS REGIONAL WEATHER ROUNDUP
NATIONAL WEATHER SERVICE CHICAGO/ROMEOVILLE IL
1100 PM CDT SUN AUG 20 2017

NOTE: "FAIR" INDICATES FEW OR NO CLOUDS BELOW 12,000 FEET WITH NO
SIGNIFICANT WEATHER AND/OR OBSTRUCTIONS TO VISIBILITY.

* THESE STATIONS ARE NOT UNDER NWS QUALITY CONTROL. THEY ALSO MAY NOT
  REPORT WEATHER SUCH AS PRECIPITATION OR FOG.

ILZ001-002-007-009-015-016-024-210500-
NORTHWEST ILLINOIS

CITY           SKY/WX    TMP DP  RH WIND       PRES   REMARKS
MOLINE         CLEAR     70  67  90 CALM      30.01R
STERLING*      CLEAR     69  68  96 E3        30.02R
SAVANNA*       CLEAR     69  67  93 CALM      30.03R
$$

ILZ003-004-008-010-011-017-018-210500-
NORTH CENTRAL ILLINOIS

CITY           SKY/WX    TMP DP  RH WIND       PRES   REMARKS
ROCKFORD       CLOUDY    74  69  85 NE3       30.04R
FREEPORT*      MOCLDY    65  65  98 CALM      30.05R
ROCHELLE*      PTCLDY    70  69  96 E5        30.03S
$$

ILZ005-006-012>014-019>023-210500-
NORTHEAST ILLINOIS

CITY           SKY/WX    TMP DP  RH WIND       PRES   REMARKS
CHICAGO-OHARE  CLOUDY    77  69  76 E6        30.03S
CHICAGO-MIDWAY CLOUDY    81  69  67 SE7       30.03S HX  84
AURORA         TSTM      69  67  93 E28G35    30.04R FOG
LANSING*       MOCLDY    76  67  75 E5        30.03S
JOLIET*        CLOUDY    78  71  79 SE5       30.01F HX  80
WAUKEGAN       CLOUDY    72  71  97 CALM      30.03S
DUPAGE AIRPORT CLOUDY    76  72  87 MISG      30.04R THUNDER
WHEELING       CLOUDY    76  73  91 CALM      30.04F
MORRIS*        CLOUDY    76  69  79 S14       30.00R
NORTHERLY ISL    N/A     75  70  84 S1          N/A
$$

LMZ740>746-210500-
SOUTHERN LAKE MICHIGAN

STATION/POSITION SKY/WX   TEMP    WIND        PRES    VSBY  WAVE
                          AIR SEA DIR/SP/G                  HT/PER
                          (F)     (DEG/KT/KT) (MB)    (MI)  (FT/S)
SOUTHERN BUOY              74 72  150/  6/  8 1016.9          0
WILMETTE HARBOR            77 74  160/  4/  4   N/A           1
HARRISON CRIB              80     150/ 11/ 12   N/A
CALUMET HARBOR             80     150/  2/  4 1016.3F
BURNS HARBOR               81     160/  9/ 13 1017.3F
MICHIGAN CITY              79     140/  7/  8   N/A
MICHIGAN CITY 6N           78 76  160/  6/  8   N/A           1
ST. JOSEPH                 78 75  190/  8/ 10 1016.8F         1
$$

ILZ025>027-034>036-040-047-049-050-058-095>099-210500-
WEST-CENTRAL ILLINOIS

CITY           SKY/WX    TMP DP  RH WIND       PRES   REMARKS
QUINCY         CLOUDY    71  67  87 CALM      30.04R
MACOMB*        PTCLDY    69  67  93 W5        30.05S
$$

ILZ028>032-037-038-041>044-048-051>054-059>061-210500-
CENTRAL ILLINOIS

CITY           SKY/WX    TMP DP  RH WIND       PRES   REMARKS
BLOOMINGTON    CLEAR     74  71  91 S6        30.04S
DECATUR        PTCLDY    78  73  84 S9        30.04S HX  81
PEORIA         PTCLDY    77  72  84 SW7       30.02R
LACON*         CLEAR     72  72 100 CALM      30.01R
LINCOLN*       PTCLDY    76  76  98 CALM      30.03R
SPRINGFIELD    PTCLDY    74  73  97 CALM      30.04R
TAYLORVILLE    NOT AVBL
$$

ILZ033-039-045-046-055>057-062-063-210500-
EAST-CENTRAL ILLINOIS

CITY           SKY/WX    TMP DP  RH WIND       PRES   REMARKS
CHAMPAIGN      CLEAR     75  70  84 S7        30.05S
RANTOUL*       PTCLDY    76  72  87 S5        30.04S
MATTOON        CLEAR     77  72  84 S6        30.06R
PARIS*         CLEAR     72  70  95 S6        30.07R
$$

ILZ079-100>102-210500-
SOUTHWEST ILLINOIS

CITY           SKY/WX    TMP DP  RH WIND       PRES   REMARKS
BELLEVILLE     CLOUDY    78  73  83 CALM      30.07R HX  81
CAHOKIA*       PTCLDY    80  72  76 S5        30.05R HX  84
SPARTA*        CLOUDY    78  69  73 S6        30.07R HX  80
$$

ILZ064>066-069>071-074>076-080>082-084>086-088>090-092>094-210500-
SOUTH-CENTRAL ILLINOIS

CITY           SKY/WX    TMP DP  RH WIND       PRES   REMARKS
CARBONDALE     CLOUDY    73  71  93 CALM      30.08R
CAIRO*         PTCLDY    72  70  95 CALM      30.08S
EFFINGHAM*     CLEAR     73  73  98 CALM      30.08R
MARION         CLOUDY    75  73  94 S3        30.09S
MT. VERNON       N/A     76  73  91 S3        30.07S
CENTRALIA*     PTCLDY    78  75  91 S5        30.07R HX  80
SALEM*         MOCLDY    80  74  83 S5        30.08R HX  85
METROPOLIS*    PTCLDY    74  72  96 CALM      30.10S
$$

ILZ067-068-072-073-078-083-087-091-210500-
SOUTHEAST ILLINOIS

CITY           SKY/WX    TMP DP  RH WIND       PRES   REMARKS
LAWRENCEVILLE  CLEAR     74  70  87 S3        30.07R
FLORA*         CLEAR     76  74  92 S6        30.07R
FAIRFIELD*     MOCLDY    77  74  91 S3        30.06S
HARRISBURG*    CLOUDY    74  72  95 CALM      30.09S
ROBINSON*      CLEAR     70  67  90 S3        30.08R
CARMI*         PTCLDY    73  72  97 CALM      30.08R
$$

ABBREVIATIONS USED IN REMARKS
   TC - TEMPERATURE IN CELSIUS
  WCI - WIND CHILL INDEX
   HX - HEAT INDEX
  VSB - VISIBILITY
$$





USA.gov is the U.S. government's official web portal to all federal, state and local government web resources and services.